Regional Weather Roundup
Issued by NWS Grand Forks, ND

Home | Current Version | Previous Version | Text Only | Print | Product List | Glossary On
Versions: 1 2 3 4 5 6 7 8 9 10 11 12 13 14 15 16 17 18 19 20 21 22 23 24 25 26 27 28 29 30 31 32 33 34 35 36 37 38 39 40 41 42 43 44 45 46 47 48 49 50
000
ASUS43 KFGF 081010
RWRFGF
PRAIRIE TO PINES  WEATHER ROUNDUP
NATIONAL WEATHER SERVICE EASTERN NORTH DAKOTA/GRAND FORKS ND
400 AM CST THU DEC 08 2016

 **SATELLITE DATA USED TO AUGMENT SKY COVER AT AUTOMATED STATIONS**
 *****  WEATHER ACROSS EASTERN NORTH DAKOTA  *****

CITY           SKY/WX    TMP DP  RH WIND       PRES   REMARKS
GRAND FORKS    MIX PCPN  17  11  77 NW23G31   30.36R WCI  -1
GRAND FRKS AFB FLURRIES  16   9  73 N18       30.37R WCI  -1
DEVILS LAKE    FLURRIES  10   6  84 NW20      30.41R WCI  -9
FARGO          MIX PCPN  18  11  74 NW23G31   30.35R WCI   0
WAHPETON ARPT  CLOUDY    14  10  85 NW24      30.34R WCI  -5
$$

 ***** WEATHER ACROSS CENTRAL AND WESTERN NORTH DAKOTA  *****

CITY           SKY/WX    TMP DP  RH WIND       PRES   REMARKS
BISMARCK       MIX PCPN   5   0  79 NW18      30.55R WCI -15
MINOT          FLURRIES   4  -1  80 W22G33    30.52R WCI -18
JAMESTOWN      CLOUDY     5   2  87 NW25      30.42R FOG     WCI -18
MINOT AFB      CLOUDY     2  -3  79 NW24      30.51R FOG     WCI -20
GARRISON         N/A      2  -3  80 NW28      30.51R WCI -22
WILLISTON      CLOUDY    -1  -7  75 W6        30.63R WCI -13
DICKINSON      PTCLDY    -7 -12  79 W13       30.51S WCI -27
HETTINGER      PTCLDY    -4 -10  75 NW12      30.54R WCI -22
$$

 *****  OTHER AIRPORT OBSERVATIONS IN OUR AREA  *****

CITY           SKY/WX    TMP DP  RH WIND       PRES   REMARKS
WALHALLA       LGT SNOW  14  14 100 NW22G29   30.40R WCI  -4
GRAFTON AIRPOR FLURRIES  16  12  86 NW20G26   30.39R WCI  -1
VALLEY CITY AR FLURRIES   7   5  92 NW23G31   30.41R WCI -14
CANDO          CLOUDY    10   7  85 NW17G25   30.45R WCI  -7
CAVALIER APRT  MIX PCPN  16  10  79 NW26G32   30.38R WCI  -3
GWINNER        CLOUDY    12   9  85 NW23G30   30.40R WCI  -7
SHEYENNE NWR     N/A     12   6  75 NW15      29.95S WCI  -4
ROLLA          CLOUDY     5   3  92 NW23G30   30.42R WCI -17
 ***** THE ABOVE OBSERVATIONS ARE NON NWS ARE NOT QUALITY
       CONTROLLED AND MAY MIS-REPORT RAIN FOR SNOW...
$$

  *****  WEATHER ACROSS NORTHERN MINNESOTA  *****

CITY           SKY/WX    TMP DP  RH WIND       PRES   REMARKS
FLAG ISLAND    CLOUDY    19  16  86 NW20      30.21R WCI   4
WARROAD        LGT SNOW  18  14  86 NW13      30.23R WCI   4
ROSEAU         FLURRIES  18  12  79 NW13      30.25R WCI   4
HALLOCK          N/A     18  16  93 NW22G30   30.34R WCI   0
THF RVR FALLS  FLURRIES  17  13  84 NW22      30.29R WCI   0
BAUDETTE       LGT SNOW  21  17  84 NW14      30.17R FOG     WCI   8
WASKISH        LGT SNOW  18  16  93 NW10      30.18R WCI   6
CROOKSTON      LGT SNOW  16  16 100 NW23G30   30.33R WCI  -2
$$
  *****  WEATHER ACROSS CENTRAL AND WEST MINNESOTA  *****

CITY           SKY/WX    TMP DP  RH WIND       PRES   REMARKS
FOSSTON        LGT SNOW  16  12  86 NW21G29   30.25R WCI  -2
BEMIDJI        LGT SNOW  17  14  88 NW13      30.18R WCI   4
PARK RAPIDS    CLOUDY    18  11  74 NW18G25   30.18R WCI   2
ELBOW LAKE     LGT SNOW  13  11  92 NW20      30.29R WCI  -5
WADENA         FLURRIES  18  12  79 NW17G24   30.20R WCI   2
DETROIT LAKES  LGT SNOW  19  18  93 NW21G28   30.26R WCI   3
MOORHEAD       MIX PCPN  16  10  79 NW25G31   30.34R WCI  -3
FERGUS FALLS   LGT SNOW  16  12  86 NW24      30.34R WCI  -3
MORRIS MN      CLOUDY    14  10  85 NW25G32   30.29R WCI  -5
STAPLES        CLOUDY    18  12  79 NW17      30.19R WCI   2
$$
  *****  WEATHER ELSEWHERE ACROSS MINNESOTA  *****

CITY           SKY/WX    TMP DP  RH WIND       PRES   REMARKS
DULUTH         LGT SNOW  22  18  85 NW13      30.02R FOG     WCI  10
INTRNTL FALLS  LGT SNOW  19  15  84 NW8       30.12R FOG     WCI   9
ELY            CLOUDY    19  16  86 NW8       30.01R WCI   9
CLOQUET        FLURRIES  21  16  79 NW13G18   30.05R WCI   9
WHEATON        LGT SNOW  16  12  86 W20G31    30.37R WCI  -1
BRAINERD       CLOUDY    19  13  77 NW16G22   30.16R WCI   4
HIBBING        MIX PCPN  19  15  84 NW21      30.07R WCI   3
ALEXANDRIA     MIX PCPN  17  13  84 NW20      30.23R FOG     WCI   1
SAINT CLOUD    MOCLDY    17  13  84 W14       30.18R WCI   3
MINNEAPOLIS    CLOUDY    17  11  77 W10       30.19R WCI   5
$$

  *****  WEATHER ACROSS SOUTH DAKOTA  *****

CITY           SKY/WX    TMP DP  RH WIND       PRES   REMARKS
SIOUX FALLS    CLEAR      8   3  80 NW20G29   30.41R WCI -11
BROOKINGS      FLURRIES   8   3  80 NW23      30.36S WCI -13
WATERTOWN      FLURRIES   8   3  80 NW22G29   30.36R WCI -12
HURON          CLOUDY     7   2  80 NW21G29   30.50R WCI -13
SISSETON         N/A     12   7  80 NW24G32   30.36R WCI  -8
ABERDEEN       PTCLDY     9   2  73 NW18G29   30.48R WCI -10
MITCHELL       CLOUDY     8   2  76 NW15      30.52R WCI  -9
PIERRE         MOCLDY     7   0  73 NW26      30.55R WCI -15
MOBRIDGE       CLEAR      5  -4  66 NW22      30.50S WCI -16
RAPID CITY     CLEAR      1  -7  68 N13       30.52R WCI -17
$$

  *****  SOME WEATHER IN NEARBY STATES *****

CITY           SKY/WX    TMP DP  RH WIND       PRES   REMARKS
GLASGOW MT     CLOUDY    -2  -8  76 NW20      30.65R WCI -24
GREAT FALLS MT CLOUDY    -2  -8  76 E8        30.50S WCI -17
CHEYENNE WY    CLOUDY   -13 -18  78 W6        30.31S WCI -27
SCOTTSBLUFF NE CLOUDY    -8 -14  74 NW7       30.51S WCI -23
OMAHA NE       PTCLDY    13   4  67 NW17      30.51R WCI  -4
DES MOINES IA  PTCLDY    14   5  67 NW18      30.40R WCI  -3
DAVENPORT IA   PTCLDY    16   8  71 W23G32    30.28R WCI  -2
CHICAGO IL     FLURRIES  22  12  65 W20G29    30.15S WCI   7
EAU CLAIRE WI  CLOUDY    16  11  80 W13       30.10S WCI   2
LA CROSSE WI   CLOUDY    18  10  71 W13       30.18S WCI   5
$$

  *****  SOME NATIONAL WEATHER *****

CITY           SKY/WX    TMP DP  RH WIND       PRES   REMARKS
LA GUARDIA NY  CLOUDY    44  29  55 W6        29.97F
RALEIGH NC     CLOUDY    49  45  86 SE3       30.02S
ATLANTA GA     MOCLDY    42  37  82 NW12      30.12F
NEW ORLEANS LA CLOUDY    58  54  86 NE9       30.18R
OKLAHOMA CITY  MOCLDY    24  17  74 N18       30.59R WCI  10
ALBUQUERQUE NM CLOUDY    26  13  57 E23       30.27R WCI  11
SALT LAKE CITY PTCLDY    21  11  65 S3        30.30S
LOS ANGELES CA CLEAR     51  46  83 E5        30.16F
BOISE ID       PTCLDY    18  11  74 S10       30.32F WCI   6
SEATTLE WA     CLEAR     32  14  47 E16G24    30.21F WCI  21
$$

*** WEATHER ACROSS MANITOBA...SASKATCHEWAN AND ONTARIO ***
                ***ONTARIO***

CITY           SKY/WX    TMP DP  RH WIND       PRES   REMARKS
GERALDTON      LGT SNOW  19  16  86 NW10      29.82R DRFTSNOWWCI   8
THUNDER BAY    FLURRIES  25  18  74 N13G18    29.94R WCI  13
SIOUX LOOKOUT  FLURRIES  18  14  86 N10G18    30.07R WCI   6
TORONTO        MOCLDY    30  23  74 SW7       29.87F WCI  23
BIG TROUT LK   FLURRIES   9   5  85 NW13G22   30.11R WCI  -7
PICKLE LAKE    NOT AVBL
DRYDEN         LGT SNOW  18  16  93 N7        30.09R WCI   8
KENORA         LGT SNOW  16  12  86 N13G18    30.17R WCI   2
$$
                *** MANITOBA***

CITY           SKY/WX    TMP DP  RH WIND       PRES   REMARKS
BRANDON        CLOUDY    10   3  72 NW14      30.47R WCI  -5
DAUPHIN        FLURRIES  10   5  79 NW10      30.52R WCI  -3
ISLAND LAKE    NOT AVBL
PILOT MOUND      N/A     10   7  85 NW17        N/A  WCI  -7
THE PAS        MOCLDY     0  -8  71 NW17G24   30.59R WCI -21
THOMPSON       FLURRIES  -8 -13  77 N14       30.54R WCI -28
WINNIPEG       LGT SNOW  16  12  86 NW22G30   30.37R DRFTSNOWWCI  -2
LYNN LAKE      CLEAR    -15 -20  76 N9        30.62S WCI -33
CHURCHILL      LGT SNOW  -2  -6  84 NW24G30   30.49S VSB 3/4 WCI -27
GILLAM         FLURRIES  -2  -8  78 N22       30.45R WCI -26
$$
                ***SASKATCHEWAN***

CITY           SKY/WX    TMP DP  RH WIND       PRES   REMARKS
ESTEVAN        CRYSTALS  -4  -9  77 W16       30.56R WCI -25
KINDERSLEY     CLOUDY    -6  -9  84 NW6       30.63S WCI -18
LLOYDMINSTER   CLEAR    -11 -17  77 NW7       30.67R WCI -26
PRINCE ALBERT  FLURRIES  -4 -11  71 NW6       30.67R WCI -16
REGINA         MOCLDY    -6 -11  77 NW10      30.61R WCI -23
YORKTON        CLOUDY     3  -2  78 NW14G20   30.53R WCI -15
N. BATTLEFORD  CLEAR     -8 -13  77 NW8       30.70R WCI -23
LA RONGE       FLURRIES -11 -17  77 W7        30.71R WCI -26
SASKATOON      PTCLDY    -4  -9  77 N6        30.68R WCI -16
SWIFT CURRENT  CLOUDY    -9 -13  84 W8        30.58R WCI -26
$$
NOTE: THESE ARE AUTOMATED STATIONS WITH LIMITED QUALITY CONTROL
      "FAIR" INDICATES FEW OR NO CLOUDS BELOW 12,000 FEET WITH NO
      SIGNIFICANT WEATHER AND/OR OBSTRUCTIONS TO VISIBILITY.
      SKY/WX - SKY CONDITION AND SIGNIFICANT WEATHER.
      TMP - AIR TEMPERATURE.    DP   - DEWPOINT TEMPERATURE.
      RH  - RELATIVE HUMIDITY.  PRES - PRESSURE.
      HX  - HEAT INDEX.         WCI  - WIND CHILL INDEX.
$




USA.gov is the U.S. government's official web portal to all federal, state and local government web resources and services.